Photometre #46[NE_1.6] Lille AOT

File : 20220925_46.hum

25/09/2022,06:34:21,TEMP=11.3,BA=5.64,STAT.A=3.5,ExtBa=13.01
25/09/2022,06:38:26,TEMP=11.7,BA=5.64,STAT.A=3.5,ExtBa=12.91
25/09/2022,06:43:14,TEMP=11.8,BA=5.64,STAT.A=3.5,ExtBa=12.91
25/09/2022,06:48:57,TEMP=11.9,BA=5.64,STAT.A=3.5,ExtBa=12.94
25/09/2022,06:55:52,TEMP=12.0,BA=5.52,STAT.A=3.5,ExtBa=12.98
25/09/2022,07:04:25,TEMP=12.6,BA=5.64,STAT.A=3.5,ExtBa=13.00
25/09/2022,07:15:17,TEMP=13.3,BA=5.64,STAT.B=3.5,ExtBa=13.04
25/09/2022,07:23:56,TEMP=14.2,BA=5.52,STAT.A=3.5,ExtBa=12.67
25/09/2022,07:26:23,TEMP=14.5,BA=5.52,STAT.A=3.0,ExtBa=12.73
25/09/2022,07:33:01,TEMP=14.6,BA=5.64,STAT.A=3.5,ExtBa=12.87
25/09/2022,07:40:39,TEMP=15.2,BA=5.64,STAT.A=3.5,ExtBa=12.95
25/09/2022,07:49:27,TEMP=15.9,BA=5.64,STAT.C=3.5,ExtBa=13.01
25/09/2022,08:03:07,TEMP=16.6,BA=5.52,STAT.A=3.5,ExtBa=12.67
25/09/2022,08:12:09,TEMP=16.6,BA=5.64,STAT.A=3.5,ExtBa=12.92
25/09/2022,08:27:15,TEMP=17.2,BA=5.64,STAT.A=3.5,ExtBa=13.05
25/09/2022,08:39:49,TEMP=17.7,BA=5.64,STAT.F,ExtBa=13.07
25/09/2022,08:54:47,TEMP=18.5,BA=5.52,STAT.D=3.5,ExtBa=12.77
25/09/2022,09:09:47,TEMP=18.8,BA=5.64,STAT.D=3.5,ExtBa=13.01
25/09/2022,09:24:48,TEMP=19.1,BA=5.64,STAT.D=3.5,ExtBa=13.09
25/09/2022,09:39:49,TEMP=17.9,BA=5.64,STAT.F,ExtBa=13.09
25/09/2022,09:54:48,TEMP=17.5,BA=5.64,STAT.D=3.5,ExtBa=13.13
25/09/2022,10:09:48,TEMP=18.7,BA=5.64,STAT.D=3.5,ExtBa=13.15
25/09/2022,10:24:48,TEMP=18.1,BA=5.64,STAT.D=3.5,ExtBa=13.16
25/09/2022,10:39:49,TEMP=18.9,BA=5.64,STAT.F,ExtBa=13.15
25/09/2022,10:54:48,TEMP=17.7,BA=5.64,STAT.D=3.5,ExtBa=13.17
25/09/2022,11:09:48,TEMP=18.0,BA=5.64,STAT.D=3.5,ExtBa=13.16
25/09/2022,11:24:48,TEMP=19.1,BA=5.64,STAT.D=3.5,ExtBa=13.17
25/09/2022,11:39:27,TEMP=19.5,BA=5.64,STAT.h
25/09/2022,11:54:27,TEMP=19.5,BA=5.64,STAT.h
25/09/2022,12:09:48,TEMP=15.2,BA=5.64,STAT.D=3.5,ExtBa=13.19
25/09/2022,12:24:48,TEMP=15.5,BA=5.64,STAT.D=3.5,ExtBa=13.18
25/09/2022,12:39:27,TEMP=15.7,BA=5.64,STAT.h
25/09/2022,12:54:48,TEMP=13.3,BA=5.64,STAT.D=3.5,ExtBa=13.18
25/09/2022,13:09:48,TEMP=13.7,BA=5.64,STAT.D=3.5,ExtBa=13.15
25/09/2022,13:24:48,TEMP=14.6,BA=5.64,STAT.D=3.5,ExtBa=13.13
25/09/2022,13:39:49,TEMP=15.5,BA=5.64,STAT.F,ExtBa=13.10
25/09/2022,13:54:48,TEMP=16.2,BA=5.64,STAT.D=3.5,ExtBa=13.11
25/09/2022,14:09:47,TEMP=15.9,BA=5.64,STAT.D=3.5,ExtBa=13.10
25/09/2022,14:24:47,TEMP=15.7,BA=5.64,STAT.D=3.5,ExtBa=13.08
25/09/2022,14:39:49,TEMP=16.1,BA=5.64,STAT.F,ExtBa=13.06
25/09/2022,14:52:23,TEMP=16.0,BA=5.64,STAT.A=3.5,ExtBa=13.08
25/09/2022,15:07:29,TEMP=15.7,BA=5.64,STAT.A=3.5,ExtBa=13.06
25/09/2022,15:19:50,TEMP=15.7,BA=5.64,STAT.A=3.5,ExtBa=13.06
25/09/2022,15:30:11,TEMP=15.5,BA=5.56,STAT.C=3.5,ExtBa=13.06
25/09/2022,15:38:59,TEMP=15.2,BA=5.56,STAT.A=3.5,ExtBa=13.05
25/09/2022,15:46:35,TEMP=14.9,BA=5.52,STAT.A=3.5,ExtBa=13.05
25/09/2022,15:53:14,TEMP=14.7,BA=5.64,STAT.A=3.5,ExtBa=13.05
25/09/2022,15:59:06,TEMP=14.6,BA=5.64,STAT.A=3.5,ExtBa=13.04
25/09/2022,16:04:19,TEMP=14.5,BA=5.52,STAT.B=3.5,ExtBa=13.04
25/09/2022,16:15:11,TEMP=14.2,BA=5.64,STAT.A=3.5,ExtBa=13.04
25/09/2022,16:23:44,TEMP=14.3,BA=5.64,STAT.A=3.5,ExtBa=13.03
25/09/2022,16:30:39,TEMP=14.2,BA=5.64,STAT.A=3.5,ExtBa=13.04
25/09/2022,16:36:22,TEMP=14.2,BA=5.64,STAT.A=3.5,ExtBa=13.03
25/09/2022,16:41:10,TEMP=14.2,BA=5.64,STAT.A=3.5,ExtBa=13.03
25/09/2022,16:46:09,TEMP=14.1,BA=5.64,STAT.A=3.5,ExtBa=13.03